STARLINK-35898

Last updated on Mon Dec 15 2025 00:02:12 GMT+0000 (Coordinated Universal Time)

1 66826U 25280F 25348.25003472 -.01758787 00000+0 -13617-1 0 9993 2 66826 69.9943 194.5342 0003543 270.8985 37.1578 15.74614758 3149
UTC large
Height (km)
Speed (km/s)
/
Latitude / Longitude
Inclination (degrees)
Orbital Period (minutes)
Azimuth
Elevation
Range (km)
Doppler Factor

Next 0 passes for location: London (51.5072 / 0.1276)

Sorry there are no passes over London.